Wind_Speed
24 25 27 29 30 32 34 35 37 39 41 41 43 44 43 43 43 44 43 42 40 40 39 38 37 35 34 33 32 32 33 33 32 32 31 30 29 28 26 25 24 23 22
24 25 27 29 30 32 34 36 38 39 41 42 43 43 42 41 41 42 42 41 40 40 39 38 37 34 33 32 31 30 32 32 32 32 31 30 29 29 28 27 26 25 24
22 23 25 27 29 31 33 35 37 38 39 40 40 40 40 40 40 41 40 39 40 40 39 38 36 35 34 33 32 30 30 31 32 32 31 29 29 30 30 28 28 27 26
23 25 27 28 30 32 34 34 36 38 39 40 41 41 41 41 42 42 41 41 41 41 40 39 38 37 36 35 34 33 32 31 32 33 33 32 31 31 30 30 30 29 28
25 26 28 29 31 32 34 34 36 38 39 41 42 42 43 43 44 44 43 43 43 42 41 41 41 40 39 38 36 34 34 33 34 35 35 34 33 33 32 31 32 31 31
27 29 30 31 33 34 36 37 38 38 40 41 42 43 44 44 44 44 44 43 43 43 43 42 42 41 41 41 40 39 38 37 37 37 37 36 35 35 34 34 33 33 32
30 31 33 34 35 37 37 38 40 40 41 42 42 43 43 44 44 44 44 44 44 44 44 44 43 43 43 43 43 42 42 42 41 40 40 39 39 39 37 37 36 34 33
33 34 36 37 38 39 39 40 41 41 41 41 41 41 42 42 42 43 44 44 44 45 45 46 46 46 46 46 45 44 45 45 45 44 43 42 42 42 41 40 38 38 36
35 36 38 39 40 41 41 41 41 41 41 41 41 41 42 43 44 45 45 46 47 47 48 48 48 48 48 49 48 48 47 47 46 45 45 45 44 43 43 42 41 40 39
37 38 39 40 41 41 41 41 41 41 41 41 41 42 43 44 46 46 47 48 50 51 52 51 51 50 51 51 51 51 51 50 49 48 47 47 47 47 45 46 44 42 41
38 39 40 41 41 41 40 40 41 41 41 42 43 44 45 46 47 48 49 50 51 52 53 53 53 52 52 52 53 54 54 53 53 52 51 51 51 50 48 48 48 47 45
38 39 40 41 41 40 40 40 41 42 43 45 46 46 47 48 49 50 51 51 52 52 53 53 53 53 53 52 53 54 56 56 56 55 55 54 54 53 52 51 50 50 49
39 40 40 40 39 39 39 40 42 44 45 46 47 47 48 49 50 50 51 52 52 51 52 52 52 52 52 52 53 54 56 57 57 57 58 57 57 57 56 55 54 53 52
40 40 40 40 39 39 40 41 43 45 46 46 47 47 48 49 50 51 52 52 52 51 51 50 50 51 51 52 52 53 54 56 57 58 58 59 59 59 59 59 58 57 55
39 40 41 41 40 40 42 43 45 46 46 46 46 47 49 50 51 51 51 50 50 49 48 48 48 49 50 51 51 52 53 55 56 57 58 59 60 60 61 61 60 61 59
40 41 42 41 41 42 43 44 45 46 45 46 47 48 49 50 50 49 47 46 45 44 43 42 43 44 45 46 48 49 50 52 53 55 56 58 58 60 61 61 61 62 61
41 42 42 42 42 43 44 45 45 45 45 46 47 48 49 48 47 45 43 42 40 39 38 38 38 39 40 42 43 45 47 48 49 50 52 55 57 58 59 61 61 61 61
42 43 43 43 43 44 45 45 45 45 45 46 47 48 47 46 43 41 40 38 36 35 34 33 33 34 36 37 39 40 42 43 44 45 48 50 53 55 56 58 59 60 61
43 44 44 44 44 45 45 45 45 45 46 47 47 46 45 43 41 39 37 35 33 32 30 29 28 28 30 32 34 36 37 38 40 41 43 46 47 49 52 54 56 56 58
44 44 45 45 45 45 45 45 45 46 46 46 46 44 43 42 39 37 35 32 30 29 27 26 25 24 25 27 28 30 33 34 35 37 40 41 43 45 47 49 51 52 54
45 45 45 45 45 45 44 44 45 46 46 45 43 42 42 40 37 35 33 30 28 26 25 23 21 21 21 22 24 26 28 30 32 33 34 37 39 41 42 44 46 49 51
45 45 46 45 45 45 44 44 44 45 45 44 42 41 40 38 35 33 30 29 27 24 22 20 18 17 16 17 19 21 24 26 28 30 31 33 35 36 37 38 41 44 47
46 46 46 45 44 44 44 44 44 44 44 43 41 39 38 36 34 31 29 27 25 23 20 17 15 13 12 13 14 16 19 22 24 26 28 29 30 31 32 33 36 38 41
46 46 46 45 44 43 44 44 43 43 43 42 39 37 36 34 32 31 28 27 25 22 19 16 13 11 9 10 11 13 16 18 21 23 24 25 26 27 28 30 31 33 36
47 47 46 45 44 43 43 43 42 42 41 40 38 36 35 33 32 30 28 26 24 22 20 15 12 9 8 8 9 10 12 15 18 20 22 24 24 24 25 25 27 30 32
47 46 45 44 43 43 42 42 41 40 39 37 36 35 34 33 31 29 27 25 23 22 19 16 12 9 7 7 7 8 10 12 15 17 19 21 22 23 24 24 25 26 28
Wind_Direction
282 281 280 280 280 280 280 282 283 283 284 285 286 287 288 287 287 287 286 287 288 288 286 285 282 280 279 280 276 270 265 262 259 257 257 257 254 252 246 242 242 240 239
286 284 283 283 282 281 281 282 283 284 284 286 286 286 287 287 287 287 287 285 285 285 285 283 280 279 278 276 276 270 262 257 257 255 256 254 253 249 245 242 241 240 236
293 290 289 287 286 286 286 285 285 285 285 286 287 288 288 288 288 287 287 286 285 283 283 281 279 277 276 274 274 268 261 257 256 256 254 252 252 249 245 242 240 239 236
300 297 295 293 291 290 290 289 288 287 287 287 288 289 289 288 288 287 286 286 286 284 282 279 278 277 275 274 272 267 264 259 254 254 253 250 249 246 244 241 238 238 237
306 303 302 300 298 296 295 293 292 291 290 290 290 290 289 288 288 287 286 285 284 282 280 278 276 275 273 271 270 266 262 260 256 252 252 249 247 244 242 240 238 237 236
311 309 307 305 303 302 300 298 296 295 294 293 292 291 290 289 289 288 287 286 284 282 280 277 275 273 271 269 267 263 259 258 256 253 249 247 246 242 240 238 237 235 234
315 313 311 310 308 306 304 302 300 299 297 296 294 293 292 291 290 289 288 286 284 282 279 277 274 272 270 268 265 262 258 255 254 252 249 246 247 242 239 238 237 235 235
317 316 315 313 312 310 309 306 304 302 301 299 297 295 294 293 291 290 289 287 285 282 280 277 275 273 270 267 264 261 259 256 254 252 249 247 245 242 241 239 236 236 235
320 318 317 316 315 313 311 309 307 306 304 301 299 296 295 294 293 291 289 287 285 283 281 279 275 271 268 266 263 260 258 255 253 252 249 246 242 241 239 237 236 236 235
322 321 320 319 317 315 313 312 310 309 307 304 301 298 297 295 293 291 289 287 285 284 282 279 275 272 268 265 262 259 257 254 251 250 248 244 242 241 241 238 237 236 236
324 323 322 321 319 317 316 314 313 312 310 307 304 301 299 298 296 294 291 289 286 283 281 278 275 271 268 265 261 258 255 253 251 249 247 244 242 241 241 239 238 237 237
325 325 324 323 321 319 318 317 316 314 312 309 306 304 302 300 297 295 293 291 288 284 281 278 274 271 267 264 260 257 254 252 250 248 246 244 242 240 239 239 238 237 236
327 327 326 325 323 321 320 319 317 315 313 310 308 306 304 302 300 298 296 293 290 286 282 278 274 270 266 263 260 256 254 251 249 247 245 243 242 241 239 238 237 236 235
329 328 328 326 325 323 322 320 318 317 315 313 311 308 307 305 302 300 297 294 290 286 282 278 274 269 265 261 259 256 253 251 249 246 244 242 241 241 239 237 236 236 235
330 330 329 328 326 324 323 322 321 319 318 316 314 313 310 308 305 303 300 297 293 288 282 278 273 269 264 260 258 256 253 250 248 246 244 243 241 240 238 237 236 236 235
332 332 331 330 328 326 325 324 323 322 320 319 317 316 314 312 310 307 304 300 296 292 286 279 274 269 263 258 255 254 251 249 246 245 243 242 240 239 239 238 237 236 236
335 334 333 331 330 328 327 326 325 324 323 322 321 319 317 316 315 312 308 304 300 295 289 282 275 269 264 259 255 252 249 246 245 243 242 241 240 239 238 237 236 236 236
336 335 334 332 331 330 329 329 328 327 326 325 324 323 322 321 319 315 311 307 303 299 294 287 279 270 264 259 254 250 246 244 243 241 240 240 239 239 238 237 236 235 235
336 335 334 333 332 331 331 330 330 329 329 328 327 326 325 324 322 319 315 312 307 303 299 293 284 275 266 259 253 248 244 243 242 240 238 238 237 237 237 237 236 234 234
336 335 335 333 333 333 333 332 332 332 331 331 330 330 330 328 326 324 321 318 314 309 305 299 289 280 270 260 253 247 243 241 239 237 236 236 235 234 235 235 235 234 233
337 337 336 335 334 334 334 334 333 334 334 334 334 334 334 333 331 329 327 323 320 314 310 306 296 285 273 260 251 245 241 238 236 235 235 235 233 233 232 233 233 233 232
338 338 337 336 335 335 336 336 336 336 336 336 336 336 337 336 335 334 332 329 325 321 316 311 302 291 276 261 250 244 238 235 232 231 233 232 231 231 231 231 230 231 230
340 339 339 338 337 337 337 338 338 338 339 339 339 339 339 339 339 338 337 335 333 329 325 318 310 298 279 263 251 243 235 231 229 228 229 228 225 225 226 226 227 227 228
341 341 340 340 339 339 339 340 340 340 342 343 343 343 343 343 344 344 342 340 339 338 334 325 318 305 283 265 254 244 234 228 225 224 223 222 220 219 221 224 225 224 224
343 343 342 342 341 341 342 342 342 343 345 346 347 347 348 347 348 348 348 346 345 343 342 334 324 314 289 268 256 244 234 226 223 222 221 220 219 219 220 221 223 224 224
344 344 344 344 344 344 344 345 346 347 348 351 352 352 352 352 352 353 353 353 351 349 347 344 333 319 303 276 254 238 226 220 218 217 217 218 219 220 220 221 222 222 222
Height
5851 5849 5848 5847 5846 5844 5843 5841 5839 5837 5834 5832 5830 5827 5825 5823 5820 5819 5817 5815 5814 5812 5811 5810 5808 5807 5807 5807 5806 5806 5806 5808 5810 5813 5815 5818 5820 5822 5824 5828 5831 5833 5835
5846 5844 5843 5841 5840 5838 5836 5834 5831 5829 5826 5824 5821 5818 5816 5814 5812 5810 5808 5806 5804 5803 5802 5801 5799 5799 5799 5798 5798 5798 5799 5801 5803 5805 5807 5810 5813 5815 5818 5822 5825 5828 5831
5840 5839 5837 5835 5833 5831 5829 5826 5823 5821 5818 5815 5813 5810 5807 5805 5803 5801 5799 5797 5795 5794 5793 5793 5792 5791 5791 5791 5790 5790 5791 5793 5796 5798 5800 5802 5806 5809 5812 5815 5818 5821 5825
5836 5834 5831 5829 5826 5824 5821 5818 5815 5812 5809 5806 5803 5801 5798 5795 5793 5790 5789 5787 5786 5785 5784 5783 5783 5782 5782 5782 5782 5782 5783 5785 5788 5790 5792 5795 5798 5801 5804 5808 5811 5814 5818
5831 5828 5825 5822 5819 5816 5813 5810 5807 5803 5800 5796 5793 5790 5787 5784 5782 5779 5778 5777 5775 5774 5773 5773 5773 5772 5772 5773 5773 5773 5775 5776 5779 5782 5785 5787 5790 5793 5797 5800 5804 5807 5811
5825 5822 5819 5815 5812 5808 5804 5801 5797 5794 5790 5786 5782 5779 5776 5773 5770 5768 5766 5765 5763 5762 5761 5761 5761 5761 5762 5762 5763 5764 5765 5767 5769 5772 5775 5779 5782 5785 5789 5792 5796 5800 5804
5820 5816 5812 5808 5804 5800 5795 5791 5787 5783 5779 5775 5771 5768 5764 5761 5758 5756 5754 5752 5751 5749 5749 5748 5748 5749 5749 5750 5751 5752 5754 5756 5759 5762 5765 5769 5773 5776 5780 5784 5788 5792 5797
5814 5809 5805 5800 5796 5791 5786 5781 5777 5772 5768 5764 5760 5756 5752 5749 5746 5744 5741 5739 5737 5736 5735 5735 5735 5735 5736 5737 5738 5740 5742 5744 5747 5750 5754 5757 5761 5765 5770 5775 5780 5785 5789
5808 5803 5798 5792 5787 5782 5776 5771 5766 5762 5757 5753 5749 5745 5741 5737 5734 5731 5728 5725 5723 5721 5720 5720 5720 5720 5721 5722 5724 5726 5728 5731 5734 5738 5741 5745 5748 5754 5759 5765 5770 5775 5780
5802 5796 5790 5784 5779 5773 5767 5761 5756 5751 5746 5742 5737 5733 5729 5725 5721 5718 5715 5712 5709 5706 5704 5703 5703 5704 5705 5706 5708 5710 5713 5716 5720 5724 5728 5733 5737 5743 5748 5753 5759 5764 5770
5796 5790 5784 5777 5770 5764 5758 5752 5747 5741 5736 5731 5726 5721 5717 5712 5708 5704 5700 5697 5693 5690 5688 5686 5686 5686 5687 5688 5690 5693 5696 5700 5704 5709 5714 5719 5724 5730 5736 5741 5747 5753 5759
5790 5784 5777 5770 5763 5756 5750 5744 5738 5732 5726 5720 5714 5708 5703 5698 5693 5688 5684 5680 5676 5673 5670 5668 5667 5667 5668 5670 5672 5675 5678 5682 5687 5693 5698 5703 5709 5716 5722 5728 5734 5741 5747
5784 5777 5770 5763 5755 5749 5742 5736 5729 5722 5715 5708 5702 5696 5689 5684 5678 5672 5667 5662 5658 5655 5652 5650 5649 5649 5649 5651 5653 5656 5660 5664 5669 5675 5681 5687 5693 5700 5707 5714 5720 5727 5734
5777 5770 5763 5756 5748 5742 5735 5728 5720 5712 5705 5697 5690 5683 5676 5669 5662 5656 5650 5644 5639 5636 5633 5631 5630 5630 5630 5632 5634 5638 5642 5646 5651 5656 5663 5670 5676 5684 5691 5698 5705 5712 5720
5772 5764 5756 5748 5741 5734 5726 5719 5711 5703 5694 5686 5678 5671 5663 5655 5647 5639 5632 5626 5620 5616 5613 5612 5611 5611 5612 5614 5617 5620 5624 5628 5634 5639 5645 5652 5659 5667 5674 5682 5690 5698 5706
5766 5757 5749 5741 5734 5726 5718 5710 5701 5693 5684 5676 5667 5658 5649 5640 5632 5623 5616 5609 5603 5599 5595 5593 5592 5592 5594 5596 5599 5602 5606 5611 5617 5622 5628 5635 5642 5649 5658 5666 5674 5682 5691
5759 5751 5742 5734 5726 5718 5709 5701 5692 5683 5674 5665 5656 5646 5637 5627 5618 5609 5602 5595 5589 5584 5580 5578 5576 5576 5577 5579 5582 5585 5589 5595 5601 5607 5613 5619 5626 5633 5641 5650 5658 5667 5675
5753 5745 5736 5728 5719 5710 5701 5692 5683 5674 5665 5655 5645 5635 5625 5615 5606 5598 5590 5583 5577 5572 5568 5565 5563 5562 5563 5565 5567 5571 5575 5581 5587 5593 5599 5605 5611 5618 5626 5634 5643 5651 5661
5747 5738 5730 5721 5712 5703 5694 5684 5675 5665 5656 5646 5636 5625 5615 5605 5596 5588 5580 5573 5567 5562 5557 5554 5552 5551 5552 5553 5555 5558 5563 5568 5574 5580 5586 5592 5598 5605 5613 5621 5629 5638 5645
5741 5732 5723 5714 5705 5696 5686 5677 5667 5658 5648 5638 5627 5616 5606 5597 5587 5579 5571 5564 5558 5553 5549 5546 5543 5542 5542 5543 5545 5548 5553 5558 5564 5569 5575 5581 5587 5593 5600 5607 5615 5624 5632
5735 5726 5717 5707 5698 5689 5680 5670 5661 5651 5640 5630 5619 5609 5599 5590 5581 5572 5565 5558 5552 5546 5542 5539 5536 5534 5534 5535 5537 5540 5544 5549 5554 5560 5565 5571 5577 5583 5590 5597 5604 5611 5619
5730 5721 5711 5702 5692 5683 5674 5664 5654 5644 5634 5623 5613 5603 5594 5584 5575 5567 5560 5553 5547 5541 5537 5533 5530 5529 5528 5529 5531 5534 5538 5542 5547 5552 5557 5562 5568 5574 5581 5587 5594 5601 5609
5725 5715 5706 5696 5686 5677 5668 5658 5648 5638 5628 5618 5608 5598 5589 5579 5571 5563 5556 5550 5543 5538 5533 5529 5527 5525 5524 5525 5526 5529 5532 5536 5541 5545 5550 5555 5560 5567 5572 5579 5585 5591 5599
5720 5710 5701 5691 5681 5672 5662 5652 5643 5633 5623 5613 5603 5594 5585 5576 5568 5560 5553 5547 5541 5535 5531 5527 5524 5522 5522 5522 5523 5525 5528 5531 5535 5540 5544 5549 5555 5560 5566 5571 5577 5583 5590
5715 5706 5696 5686 5677 5667 5657 5648 5638 5629 5619 5610 5600 5591 5583 5574 5566 5559 5552 5545 5539 5534 5529 5525 5522 5521 5520 5521 5522 5523 5525 5528 5531 5535 5540 5544 5550 5555 5560 5565 5571 5576 5583
5711 5701 5692 5682 5672 5663 5653 5644 5634 5625 5616 5607 5598 5590 5581 5573 5565 5558 5551 5545 5539 5533 5529 5524 5521 5520 5519 5519 5520 5521 5523 5526 5528 5532 5536 5541 5545 5550 5555 5560 5565 5571 5576